Location: Lecco
(45.8566°N, 9.3977°E)
Time: 07:48:02
(UTC+02:00)

A-11 Canister half - Pass Details

Date: 17 August 2020
Orbit: 1514 x 1686 km, 47.2° (Epoch: 21 September)

Event Time Altitude Azimuth Distance (km) Brightness Sun altitude
Rises 00:47:54 0° 292° (WNW) 4,861 12.0 -30.2°
Reaches altitude 10° 00:51:37 10° 281° (W) 3,895 11.3 -30.3°
Enters shadow 00:58:51 27° 234° (SW) 2,807 10.1 -30.5°
